Flag for Germany Weather past 2 weeks in Greifswald, Mecklenburg-Western Pomerania, Germany

Now
50 °F

Fog.


Feels Like: 49 °F
Forecast: 47 / 59 °F
Wind: 3 mph from Southwest

Location: Greifswald

Current Time: Oct 26, 2014 at 9:07:26 AM

Latest Report: Oct 26, 2014 at 8:00 AM


Visibility: 0 mi

Pressure: 30.23 "Hg

Humidity: 99%

Dew point: 50 °F

Location of GreifswaldLocation

Historic Weather in Greifswald — Graph

°F

Greifswald temperature yesterday

Maximum temperature yesterday: 46 °F (at 10:00 PM)
Minimum temperature yesterday: 42 °F (at 8:00 AM)
Average temperature yesterday: 44 °F

Past Weeks' High & Low Weather Summary

 TemperatureHumidityPressure
High70 °F (Oct 19, 4:00 PM)100% (Oct 15, 12:00 AM)30.24 "Hg (Oct 15, 12:00 AM)
Low42 °F (Oct 25, 8:00 AM)61% (Oct 20, 3:00 PM)29.41 "Hg (Oct 21, 10:00 PM)
Average53 °F91%29.90 "Hg
* Reported Oct 11 9:00 AM — Oct 26 8:00 AM, Greifswald, Weather by CustomWeather, © 2014

Note: Actual official high and low records may vary slightly from our data, if they occured in-between our weather recording intervals... More about our weather records

Advertising

Greifswald weather history for previous 24 hours

 ConditionsComfort  
Time TempWeatherWind HumidityBarometerVisibility
8:00 AM
Oct 26
50 °FFog.3 mph99%30.23 "Hg1 mi
7:00 AM49 °FFog.2 mph99%30.21 "Hg0 mi
6:00 AM49 °FFog.3 mph99%30.21 "Hg1 mi
5:00 AM49 °FFog.3 mph99%30.21 "Hg1 mi
3:00 AM49 °FFog.3 mph97%30.19 "Hg2 mi
2:00 AM49 °FFog.3 mph97%30.20 "Hg2 mi
2:00 AM48 °FFog.3 mph99%30.18 "Hg1 mi
1:00 AM48 °FFog.3 mph97%30.18 "Hg2 mi
12:00 AM47 °FFog.3 mph98%30.16 "Hg2 mi
10:00 PM
Oct 25
46 °FLow clouds.3 mph97%30.15 "Hg2 mi
9:00 PM45 °FLight rain. Low clouds.3 mph96%30.14 "Hg2 mi
8:00 PM44 °FLight rain. Low clouds.3 mph97%30.14 "Hg1 mi
7:00 PM44 °FLight rain. Low clouds.3 mph97%30.13 "Hg1 mi
6:00 PM45 °FDrizzle. Low clouds.5 mph93%30.12 "Hg2 mi
5:00 PM44 °FFog.5 mph90%30.11 "Hg3 mi
4:00 PM45 °FFog.5 mph88%30.10 "Hg3 mi
3:00 PM45 °FFog.5 mph87%30.10 "Hg3 mi
2:00 PM45 °FFog.5 mph85%30.11 "Hg4 mi
1:00 PM44 °FFog.3 mph85%30.11 "Hg4 mi
12:00 PM44 °FFog.5 mph84%30.10 "Hg4 mi
11:00 AM44 °FLow clouds.3 mph85%30.11 "Hg4 mi
10:00 AM43 °FFog.6 mph86%30.11 "Hg4 mi
9:00 AM42 °FOvercast.5 mph86%30.11 "Hg5 mi
Weather by CustomWeather, © 2014

See weather overviewHow to use our weather pages